Wind_Speed
38 35 36 28 24 21 20 24 22 19 17 12 12 13 12 10 9 13 29 25 17 16 16 14 14 11 9 7 8 13 12 14 15 14 13 13 14 12 12 12 12 14 14 17
35 32 37 36 30 27 26 27 25 19 17 16 18 18 16 10 10 13 27 15 19 17 16 13 12 11 9 5 6 9 14 12 14 17 15 14 11 12 11 11 12 13 15 15
33 33 36 36 33 31 29 29 27 23 22 20 21 18 21 16 14 13 19 17 19 20 20 16 14 13 12 10 8 7 9 10 13 14 14 16 11 13 12 10 12 13 14 13
33 34 35 36 36 33 30 30 34 27 28 27 20 22 20 17 16 17 20 21 21 19 19 19 18 17 16 14 10 9 10 10 10 14 14 14 12 10 13 10 10 11 11 12
29 33 34 34 35 33 32 31 28 28 27 36 16 14 9 10 8 14 22 24 22 19 19 20 20 20 18 17 15 11 11 11 10 11 15 15 12 10 11 10 8 8 9 11
32 37 37 34 33 32 36 32 30 26 25 22 16 19 17 9 11 12 19 29 24 23 21 22 23 22 20 19 18 15 13 12 11 10 11 14 14 13 10 9 9 8 11 10
30 35 38 37 37 38 34 27 28 30 23 18 23 25 17 13 10 12 15 35 28 27 25 24 23 22 20 19 19 18 15 13 13 11 9 9 14 12 11 10 9 8 6 9
32 34 35 37 39 41 37 30 29 31 18 14 20 17 15 16 15 14 18 29 36 43 30 27 26 22 22 24 20 19 19 16 15 14 12 10 11 12 11 10 8 8 7 7
36 34 32 36 39 46 45 37 40 27 19 18 24 28 17 15 14 16 17 14 32 32 34 32 32 28 25 21 22 23 21 20 18 16 15 14 13 13 14 11 8 8 6 8
38 36 35 33 34 39 46 42 34 27 23 19 23 21 21 21 21 19 21 16 23 33 38 39 35 25 29 22 23 23 22 20 17 16 15 15 16 15 13 13 11 9 8 6
39 37 35 34 31 32 42 45 39 35 32 25 24 20 18 21 24 23 23 18 23 34 21 31 33 27 30 22 20 18 20 19 17 20 18 18 17 18 18 16 14 12 11 10
36 33 38 39 34 33 37 40 46 40 33 32 32 30 27 21 19 24 26 20 16 11 17 22 28 17 35 29 29 18 15 18 10 23 25 25 24 23 22 21 19 17 16 15
38 37 38 35 36 35 39 38 46 45 42 38 38 31 38 32 24 27 29 26 22 19 14 21 11 14 26 21 22 18 15 12 23 18 30 30 28 26 24 24 23 23 22 20
35 37 38 37 44 40 41 42 42 42 49 48 43 46 43 41 33 32 31 28 21 21 20 21 23 21 13 13 15 13 13 19 30 13 21 38 33 29 30 27 28 27 25 23
33 36 37 34 46 47 42 37 42 41 44 53 48 47 39 40 40 45 28 27 24 20 20 26 26 27 22 20 19 18 20 23 20 18 21 26 29 35 35 32 31 31 27 25
22 39 39 38 44 46 41 41 42 48 51 51 57 54 45 38 37 25 25 22 22 24 22 23 26 26 26 24 25 24 22 21 22 21 17 19 34 33 39 34 32 33 33 31
22 25 35 33 39 39 37 34 36 44 53 40 46 55 54 39 33 28 22 22 24 23 19 20 25 29 31 30 31 29 26 24 25 27 19 17 18 31 34 34 33 37 34 31
16 17 26 25 39 47 39 32 31 33 55 54 52 52 50 45 36 22 25 26 28 26 23 21 22 25 27 29 29 29 30 30 29 28 25 18 17 33 33 36 39 37 35 34
20 20 20 28 36 34 36 39 34 30 49 56 59 58 56 53 46 45 25 24 27 26 27 29 28 26 25 24 26 29 31 32 30 29 29 24 23 24 28 33 31 30 29 28
28 25 24 27 35 40 45 37 30 42 44 45 47 53 55 54 51 46 40 41 40 34 29 28 30 30 33 32 32 31 32 32 33 32 32 31 29 30 28 26 29 25 22 24
14 21 26 29 32 31 31 33 38 39 42 44 44 46 48 46 46 49 48 44 41 43 42 38 38 41 42 42 41 38 36 37 39 35 33 35 35 33 32 31 30 30 31 31
22 19 13 26 32 33 32 31 30 31 44 43 42 41 42 39 38 37 35 33 34 35 37 41 43 45 47 48 47 45 43 43 43 42 38 38 39 38 37 35 34 34 34 36
27 27 23 17 20 30 30 30 28 24 28 32 43 50 49 44 42 42 44 43 43 41 38 39 41 42 47 49 49 48 48 48 48 46 45 42 41 43 43 43 42 40 39 38
26 25 25 24 23 21 24 28 30 30 30 32 38 40 36 37 38 37 32 33 37 38 40 43 40 42 42 43 45 47 47 47 46 46 45 43 41 42 44 46 46 46 46 44
23 23 25 25 26 29 26 19 25 29 35 38 41 41 42 43 44 43 43 43 38 34 38 37 40 40 41 43 44 46 46 45 47 48 48 47 46 44 43 45 46 46 48 48
25 22 28 29 26 28 29 31 34 30 28 29 34 42 47 48 46 46 45 46 45 43 46 51 48 46 44 44 44 46 48 49 49 49 49 49 49 48 48 47 47 49 50 52
Wind_Direction
210 213 214 220 217 219 226 234 226 215 217 224 239 250 246 250 264 256 213 234 206 177 195 170 167 168 170 172 135 134 126 124 124 124 122 121 117 128 125 122 123 132 126 118
207 208 210 211 207 205 217 227 236 224 222 228 234 251 246 238 239 256 204 212 196 182 188 182 177 183 175 166 149 146 131 136 125 118 119 116 122 126 132 125 126 136 139 136
206 207 210 209 205 211 214 225 223 214 217 242 238 226 243 236 231 227 205 213 200 173 184 180 187 196 184 173 172 162 138 134 125 125 117 118 123 133 135 145 132 135 138 143
206 210 208 208 200 206 211 220 221 218 228 221 207 245 217 229 232 240 233 206 198 180 172 176 192 202 196 181 169 174 156 149 138 139 134 123 116 115 129 140 142 141 139 142
201 211 209 207 203 200 196 213 222 230 233 239 223 251 248 223 234 224 270 203 201 184 173 174 192 203 203 190 177 184 167 162 153 153 136 123 128 127 120 130 144 152 154 155
209 208 204 203 199 197 190 202 219 230 239 247 244 244 228 228 235 228 232 195 193 198 181 179 191 204 201 203 188 190 174 167 161 168 154 140 131 138 127 129 132 147 163 154
215 216 208 202 198 185 194 202 216 225 229 235 254 231 206 229 257 258 258 210 194 199 200 195 193 202 198 203 200 194 190 172 172 171 186 159 153 135 134 138 134 144 156 156
217 218 218 206 200 189 187 199 221 222 230 221 212 211 216 224 242 271 284 237 208 209 204 207 204 195 198 193 200 203 200 188 184 178 185 181 169 161 162 146 132 127 153 163
216 218 215 218 207 192 192 204 212 210 205 206 222 229 241 229 239 260 260 266 190 194 216 204 199 202 203 190 192 202 203 201 197 194 190 194 189 175 162 153 147 152 155 167
217 212 214 211 216 205 204 208 205 200 204 208 232 231 226 235 244 249 269 277 245 227 215 196 209 201 200 192 200 200 200 202 206 205 217 209 200 194 190 168 177 183 169 187
212 212 208 204 207 210 212 214 212 205 199 214 224 227 237 237 243 251 256 259 268 269 184 203 196 203 208 188 199 197 201 188 211 211 209 221 214 210 198 190 192 187 178 182
218 206 205 206 202 208 208 210 217 212 208 214 219 228 228 244 244 249 251 253 250 274 281 182 187 203 207 180 186 193 202 214 199 219 219 212 218 214 207 199 200 198 190 197
211 205 208 205 211 212 210 208 217 221 214 221 222 224 227 233 233 244 244 242 247 242 240 256 215 198 197 202 187 188 202 232 241 219 222 218 216 220 216 203 207 207 201 201
213 208 209 212 216 217 203 205 211 218 221 224 223 226 226 230 239 244 231 233 214 219 217 223 240 238 228 245 262 222 214 218 229 267 248 231 216 217 220 211 202 214 215 207
219 213 217 221 226 224 219 205 213 219 225 228 227 233 230 230 238 233 226 213 208 207 213 218 218 237 240 238 246 252 250 260 276 293 303 245 218 220 219 219 209 208 214 218
225 228 222 219 207 212 216 222 225 222 226 225 228 236 233 230 241 248 249 235 229 223 223 222 225 229 235 241 247 247 251 262 274 287 289 290 210 229 222 215 217 215 214 214
244 228 232 214 213 211 207 206 213 215 226 230 230 237 237 238 244 250 238 214 214 221 223 227 232 236 238 237 240 250 256 260 266 271 266 280 262 223 214 214 218 224 220 219
254 225 235 245 225 194 191 195 197 211 218 222 231 238 239 245 237 232 226 220 213 216 223 228 233 236 241 245 247 248 254 259 262 268 273 261 252 237 233 231 231 238 224 219
241 240 233 234 220 203 202 190 188 199 216 221 228 236 240 243 246 243 235 233 238 233 231 237 240 244 250 250 250 253 254 256 255 256 260 260 258 263 274 243 221 221 207 214
242 235 235 237 233 244 246 235 209 200 213 225 231 237 239 241 245 247 243 246 246 242 240 240 249 251 253 257 259 261 266 269 268 264 264 266 258 256 258 263 259 259 243 250
249 244 234 236 242 242 247 247 239 224 212 220 228 237 244 248 248 247 251 251 250 250 249 245 247 253 256 260 265 267 268 268 267 264 263 265 267 263 261 262 259 252 263 264
248 240 241 230 234 241 243 244 243 243 236 226 231 236 241 245 247 247 243 241 242 243 245 245 246 249 253 256 259 260 262 264 265 265 264 262 264 266 267 263 260 257 252 247
244 248 246 242 243 240 242 246 246 244 237 239 241 250 254 253 254 253 251 251 249 249 249 248 247 249 251 253 255 257 260 262 265 266 265 262 259 259 259 260 260 257 255 252
247 253 258 243 237 244 242 239 239 237 238 240 241 242 242 244 247 251 253 253 252 250 250 250 250 246 246 251 255 256 256 257 258 260 262 262 258 255 257 260 260 260 259 257
249 250 253 245 242 242 239 254 232 234 237 243 247 246 249 252 254 257 259 259 254 251 245 235 241 246 249 250 250 253 256 256 257 258 259 260 260 259 255 255 257 258 260 261
236 245 240 251 255 250 248 241 243 246 247 250 251 250 252 255 258 259 260 261 262 257 249 255 257 253 253 253 252 252 253 255 256 257 258 258 259 259 259 257 254 254 255 257
Height
5852 5860 5867 5874 5879 5880 5881 5880 5885 5888 5894 5896 5897 5896 5899 5900 5902 5902 5903 5906 5913 5914 5915 5919 5921 5924 5927 5929 5931 5935 5934 5936 5936 5935 5935 5935 5939 5940 5941 5942 5944 5945 5945 5946
5850 5858 5861 5865 5871 5874 5876 5878 5882 5887 5891 5893 5893 5893 5894 5896 5897 5898 5899 5903 5909 5912 5915 5917 5918 5922 5924 5926 5929 5933 5936 5937 5937 5936 5937 5938 5940 5942 5943 5945 5946 5947 5947 5949
5845 5850 5854 5860 5866 5870 5872 5875 5880 5884 5884 5888 5890 5890 5891 5891 5894 5897 5897 5903 5907 5910 5915 5916 5917 5920 5923 5925 5930 5932 5934 5936 5937 5938 5940 5941 5943 5944 5945 5947 5948 5948 5948 5950
5840 5843 5849 5855 5860 5865 5869 5873 5873 5878 5881 5882 5882 5889 5887 5888 5891 5893 5894 5903 5906 5908 5911 5914 5918 5921 5924 5925 5930 5932 5934 5935 5937 5939 5940 5942 5944 5946 5947 5948 5950 5951 5952 5953
5837 5838 5845 5852 5858 5860 5869 5869 5871 5870 5873 5875 5879 5886 5886 5887 5887 5890 5891 5898 5904 5907 5909 5914 5916 5919 5924 5925 5929 5932 5934 5935 5936 5938 5940 5941 5945 5947 5948 5949 5951 5952 5954 5955
5830 5831 5835 5846 5851 5858 5860 5861 5863 5866 5868 5873 5876 5879 5883 5884 5886 5888 5889 5894 5899 5904 5908 5911 5914 5917 5922 5925 5928 5931 5933 5935 5936 5939 5941 5942 5945 5946 5949 5952 5953 5955 5955 5955
5825 5829 5833 5839 5845 5849 5852 5853 5858 5862 5866 5873 5869 5873 5879 5881 5884 5884 5884 5891 5894 5901 5905 5907 5911 5915 5920 5923 5927 5929 5931 5933 5936 5938 5941 5943 5944 5946 5949 5952 5953 5955 5956 5957
5819 5825 5830 5835 5841 5846 5849 5852 5854 5858 5866 5869 5867 5870 5876 5875 5880 5881 5882 5882 5891 5894 5895 5905 5909 5912 5917 5918 5924 5928 5929 5931 5933 5936 5939 5942 5944 5946 5948 5951 5954 5955 5957 5957
5813 5820 5826 5830 5836 5840 5843 5846 5850 5856 5860 5861 5862 5867 5871 5873 5877 5879 5879 5882 5885 5887 5881 5901 5905 5910 5912 5915 5920 5924 5926 5929 5932 5934 5936 5939 5943 5945 5947 5949 5953 5955 5956 5957
5806 5815 5820 5826 5830 5836 5840 5844 5850 5851 5855 5857 5857 5861 5866 5871 5872 5876 5877 5880 5880 5878 5881 5891 5880 5904 5907 5910 5915 5920 5925 5927 5931 5936 5937 5938 5941 5943 5946 5948 5950 5952 5954 5956
5798 5809 5815 5820 5825 5832 5838 5840 5844 5846 5851 5852 5854 5857 5858 5863 5866 5869 5873 5875 5877 5875 5873 5886 5895 5901 5901 5906 5910 5918 5922 5924 5927 5931 5936 5937 5938 5941 5943 5946 5948 5948 5951 5954
5796 5803 5807 5813 5817 5824 5827 5834 5839 5840 5846 5846 5848 5853 5854 5856 5859 5860 5865 5870 5874 5877 5876 5884 5889 5894 5897 5900 5907 5910 5915 5918 5920 5925 5930 5933 5936 5938 5941 5942 5944 5946 5948 5951
5789 5798 5803 5810 5814 5819 5822 5827 5832 5836 5840 5839 5843 5847 5849 5853 5856 5858 5859 5863 5871 5874 5879 5881 5886 5892 5895 5898 5896 5905 5910 5913 5913 5914 5923 5928 5931 5936 5938 5942 5941 5943 5945 5947
5784 5793 5800 5805 5806 5809 5813 5818 5823 5828 5832 5831 5836 5839 5847 5850 5853 5856 5857 5861 5866 5870 5873 5877 5881 5885 5888 5891 5893 5898 5903 5907 5906 5911 5914 5917 5924 5929 5932 5936 5940 5940 5942 5943
5782 5788 5793 5796 5798 5802 5810 5814 5818 5822 5825 5827 5833 5835 5843 5847 5849 5849 5854 5859 5862 5864 5869 5874 5876 5881 5885 5890 5894 5898 5898 5900 5903 5907 5908 5909 5915 5922 5925 5926 5932 5936 5937 5939
5777 5784 5786 5789 5789 5796 5804 5807 5813 5814 5815 5820 5827 5827 5836 5842 5843 5846 5851 5857 5859 5862 5865 5868 5872 5876 5880 5883 5889 5894 5897 5899 5900 5902 5906 5904 5906 5911 5915 5919 5922 5925 5929 5931
5773 5776 5778 5784 5787 5791 5798 5798 5801 5804 5810 5818 5821 5825 5831 5836 5840 5843 5847 5851 5856 5859 5862 5866 5870 5873 5877 5881 5885 5888 5891 5895 5896 5900 5903 5902 5902 5906 5909 5912 5915 5917 5918 5922
5767 5771 5774 5775 5781 5781 5783 5792 5793 5796 5805 5811 5813 5816 5824 5829 5836 5841 5844 5847 5852 5857 5860 5863 5866 5868 5872 5876 5879 5883 5885 5888 5891 5892 5894 5898 5901 5903 5903 5906 5909 5912 5912 5914
5764 5765 5767 5770 5775 5778 5775 5780 5785 5793 5799 5804 5807 5808 5815 5821 5828 5837 5842 5845 5847 5852 5856 5857 5860 5863 5866 5870 5873 5875 5877 5880 5884 5886 5888 5891 5893 5894 5895 5897 5899 5903 5903 5907
5758 5760 5763 5764 5766 5766 5768 5777 5780 5785 5792 5797 5802 5803 5807 5813 5819 5827 5833 5837 5840 5843 5847 5851 5852 5856 5858 5860 5862 5863 5866 5869 5873 5877 5879 5881 5885 5887 5890 5891 5892 5893 5895 5900
5751 5753 5756 5756 5757 5761 5766 5771 5776 5782 5790 5791 5795 5798 5800 5805 5811 5816 5819 5824 5827 5829 5834 5837 5841 5843 5845 5849 5851 5852 5855 5857 5861 5866 5870 5872 5874 5877 5880 5882 5885 5887 5889 5894
5745 5749 5750 5751 5754 5758 5761 5764 5769 5775 5781 5787 5787 5790 5793 5797 5800 5805 5810 5813 5815 5817 5821 5825 5828 5831 5834 5836 5839 5843 5845 5848 5851 5854 5859 5863 5864 5866 5869 5873 5876 5879 5882 5884
5739 5741 5745 5750 5750 5751 5755 5758 5762 5767 5772 5774 5775 5780 5783 5786 5789 5792 5797 5801 5805 5807 5808 5812 5815 5818 5820 5823 5827 5830 5833 5837 5839 5842 5845 5850 5855 5858 5860 5863 5866 5869 5871 5874
5730 5732 5736 5741 5744 5745 5747 5752 5756 5759 5763 5765 5768 5771 5772 5773 5775 5779 5782 5788 5792 5794 5797 5800 5803 5806 5808 5810 5814 5817 5821 5824 5827 5829 5831 5835 5841 5845 5848 5850 5853 5855 5858 5862
5725 5727 5728 5732 5735 5737 5740 5742 5747 5752 5755 5756 5757 5760 5762 5765 5767 5769 5772 5776 5781 5783 5784 5788 5790 5790 5793 5798 5802 5804 5807 5810 5813 5816 5819 5821 5824 5829 5833 5837 5839 5841 5843 5846
5718 5720 5723 5725 5728 5730 5733 5736 5739 5743 5745 5747 5748 5750 5752 5755 5758 5759 5760 5763 5766 5770 5773 5774 5775 5778 5781 5783 5786 5790 5794 5796 5799 5801 5804 5807 5811 5813 5816 5820 5824 5828 5829 5831